TimeMST,TemperatureF,Dew PointF,Humidity,Sea Level PressureIn,VisibilityMPH,Wind Direction,Wind SpeedMPH,Gust SpeedMPH,PrecipitationIn,Events,Conditions,WindDirDegrees,DateUTC
12:15 AM,37.4,37.4,100,30.20,0.2,Calm,Calm,-,N/A,Fog,Fog,0,2012-12-30 07:15:00
12:35 AM,37.4,37.4,100,30.20,0.2,SSE,3.5,-,N/A,Fog,Fog,160,2012-12-30 07:35:00
12:55 AM,37.4,37.4,100,30.20,0.2,ESE,3.5,-,N/A,Fog,Fog,120,2012-12-30 07:55:00
1:15 AM,37.4,37.4,100,30.20,0.8,Calm,Calm,-,N/A,,Overcast,0,2012-12-30 08:15:00
1:35 AM,35.6,35.6,100,30.20,0.5,Calm,Calm,-,N/A,Fog,Fog,0,2012-12-30 08:35:00
1:55 AM,35.6,35.6,100,30.20,0.5,Calm,Calm,-,N/A,Fog,Fog,0,2012-12-30 08:55:00
2:15 AM,35.6,35.6,100,30.20,0.2,Calm,Calm,-,N/A,Fog,Fog,0,2012-12-30 09:15:00
2:35 AM,35.6,35.6,100,30.21,0.2,Calm,Calm,-,N/A,Fog,Fog,0,2012-12-30 09:35:00
2:55 AM,33.8,33.8,100,30.21,0.2,Calm,Calm,-,N/A,Fog,Fog,0,2012-12-30 09:55:00
3:15 AM,33.8,33.8,100,30.22,0.2,Calm,Calm,-,N/A,Fog,Fog,0,2012-12-30 10:15:00
3:35 AM,35.6,35.6,100,30.22,0.5,Calm,Calm,-,N/A,Fog,Fog,0,2012-12-30 10:35:00
3:55 AM,35.6,35.6,100,30.23,0.5,SE,4.6,-,N/A,Fog,Fog,140,2012-12-30 10:55:00
4:15 AM,35.6,35.6,100,30.24,0.5,Calm,Calm,-,N/A,Fog,Fog,0,2012-12-30 11:15:00
4:35 AM,35.6,35.6,100,30.24,0.5,SE,3.5,-,N/A,Fog,Fog,140,2012-12-30 11:35:00
4:55 AM,35.6,35.6,100,30.24,0.2,SE,4.6,-,N/A,Fog,Fog,130,2012-12-30 11:55:00
5:15 AM,35.6,35.6,100,30.23,0.2,SE,4.6,-,N/A,Fog,Fog,140,2012-12-30 12:15:00
5:35 AM,35.6,35.6,100,30.24,0.2,South,3.5,-,N/A,Fog,Fog,180,2012-12-30 12:35:00
5:55 AM,33.8,33.8,100,30.24,1.2,SSW,3.5,-,N/A,,Mostly Cloudy,210,2012-12-30 12:55:00
6:15 AM,33.8,33.8,100,30.24,0.5,SSE,3.5,-,N/A,Fog,Fog,150,2012-12-30 13:15:00
6:35 AM,33.8,33.8,100,30.24,0.8,SE,5.8,-,N/A,,Mostly Cloudy,130,2012-12-30 13:35:00
6:55 AM,33.8,33.8,100,30.24,10.0,SE,4.6,-,N/A,,Clear,140,2012-12-30 13:55:00
7:15 AM,32.0,32.0,100,30.24,10.0,SE,3.5,-,N/A,,Clear,140,2012-12-30 14:15:00
7:35 AM,32.0,32.0,100,30.24,5.0,SSE,5.8,-,N/A,,Clear,160,2012-12-30 14:35:00
7:55 AM,33.8,33.8,100,30.25,10.0,ESE,3.5,-,N/A,,Clear,120,2012-12-30 14:55:00
8:15 AM,33.8,33.8,100,30.25,10.0,ESE,4.6,-,N/A,,Clear,120,2012-12-30 15:15:00
8:35 AM,33.8,33.8,100,30.25,10.0,SE,4.6,-,N/A,,Clear,130,2012-12-30 15:35:00
8:55 AM,32.0,32.0,100,30.25,10.0,Calm,Calm,-,N/A,,Clear,0,2012-12-30 15:55:00
9:15 AM,32.0,32.0,100,30.26,10.0,SE,3.5,-,N/A,,Clear,140,2012-12-30 16:15:00
9:35 AM,33.8,33.8,100,30.26,7.0,Calm,Calm,-,N/A,,Clear,0,2012-12-30 16:35:00
9:55 AM,33.8,33.8,100,30.27,10.0,SSE,3.5,-,N/A,,Clear,150,2012-12-30 16:55:00
10:15 AM,33.8,33.8,100,30.27,10.0,South,3.5,-,N/A,,Clear,170,2012-12-30 17:15:00
10:35 AM,35.6,35.6,100,30.27,10.0,SSE,4.6,-,N/A,,Clear,150,2012-12-30 17:35:00
10:55 AM,35.6,35.6,100,30.28,10.0,SSE,4.6,-,N/A,,Clear,150,2012-12-30 17:55:00
11:15 AM,37.4,37.4,100,30.29,10.0,Calm,Calm,-,N/A,,Clear,0,2012-12-30 18:15:00
11:35 AM,39.2,39.2,100,30.29,10.0,South,3.5,-,N/A,,Clear,180,2012-12-30 18:35:00
11:55 AM,39.2,39.2,100,30.28,10.0,Calm,Calm,-,N/A,,Clear,0,2012-12-30 18:55:00
12:15 PM,41.0,41.0,100,30.28,10.0,SSE,3.5,-,N/A,,Clear,150,2012-12-30 19:15:00
12:35 PM,41.0,41.0,100,30.27,10.0,SSE,3.5,-,N/A,,Clear,160,2012-12-30 19:35:00
12:55 PM,42.8,42.8,100,30.27,10.0,Calm,Calm,-,N/A,,Clear,0,2012-12-30 19:55:00
1:15 PM,44.6,44.6,100,30.26,10.0,West,3.5,-,N/A,,Clear,280,2012-12-30 20:15:00
1:35 PM,44.6,39.2,81,30.26,10.0,Calm,Calm,-,N/A,,Clear,0,2012-12-30 20:35:00
1:55 PM,46.4,37.4,71,30.26,10.0,Calm,Calm,-,N/A,,Clear,0,2012-12-30 20:55:00
2:15 PM,46.4,37.4,71,30.26,10.0,Calm,Calm,-,N/A,,Clear,0,2012-12-30 21:15:00
2:35 PM,46.4,37.4,71,30.26,10.0,Calm,Calm,-,N/A,,Clear,0,2012-12-30 21:35:00
2:55 PM,46.4,37.4,71,30.25,10.0,Calm,Calm,-,N/A,,Clear,0,2012-12-30 21:55:00
3:15 PM,48.2,37.4,66,30.25,10.0,Calm,Calm,-,N/A,,Clear,0,2012-12-30 22:15:00
3:35 PM,48.2,37.4,66,30.25,10.0,Calm,Calm,-,N/A,,Clear,0,2012-12-30 22:35:00
3:55 PM,48.2,39.2,71,30.24,10.0,West,3.5,-,N/A,,Clear,260,2012-12-30 22:55:00
4:15 PM,48.2,37.4,66,30.24,10.0,WSW,3.5,-,N/A,,Clear,240,2012-12-30 23:15:00
4:35 PM,48.2,39.2,71,30.24,10.0,Calm,Calm,-,N/A,,Clear,0,2012-12-30 23:35:00
4:55 PM,46.4,37.4,71,30.23,10.0,Calm,Calm,-,N/A,,Clear,0,2012-12-30 23:55:00
5:15 PM,44.6,35.6,71,30.23,10.0,ENE,5.8,-,N/A,,Clear,70,2012-12-31 00:15:00
5:35 PM,44.6,35.6,71,30.22,10.0,East,6.9,-,N/A,,Clear,80,2012-12-31 00:35:00
5:55 PM,42.8,33.8,70,30.22,10.0,ENE,6.9,-,N/A,,Clear,60,2012-12-31 00:55:00
6:15 PM,41.0,35.6,81,30.23,10.0,Calm,Calm,-,N/A,,Clear,0,2012-12-31 01:15:00
6:35 PM,37.4,35.6,93,30.23,10.0,South,3.5,-,N/A,,Clear,190,2012-12-31 01:35:00
6:55 PM,37.4,35.6,93,30.24,10.0,Calm,Calm,-,N/A,,Clear,0,2012-12-31 01:55:00
7:15 PM,37.4,35.6,93,30.24,10.0,SSE,3.5,-,N/A,,Clear,160,2012-12-31 02:15:00
7:35 PM,37.4,35.6,93,30.24,4.0,SE,3.5,-,N/A,,Clear,140,2012-12-31 02:35:00
7:55 PM,35.6,33.8,93,30.25,7.0,South,5.8,-,N/A,,Clear,180,2012-12-31 02:55:00
8:15 PM,35.6,33.8,93,30.24,7.0,SSE,3.5,-,N/A,,Clear,150,2012-12-31 03:15:00
8:35 PM,33.8,33.8,100,30.25,7.0,SSE,4.6,-,N/A,,Clear,160,2012-12-31 03:35:00
8:55 PM,33.8,32.0,93,30.25,3.0,SSE,3.5,-,N/A,,Clear,150,2012-12-31 03:55:00
9:15 PM,33.8,33.8,100,30.24,5.0,ESE,4.6,-,N/A,,Clear,120,2012-12-31 04:15:00
9:35 PM,32.0,32.0,100,30.25,10.0,SSW,3.5,-,N/A,,Clear,200,2012-12-31 04:35:00
9:55 PM,32.0,32.0,100,30.25,2.5,Calm,Calm,-,N/A,,Clear,0,2012-12-31 04:55:00
10:15 PM,32.0,32.0,100,30.26,7.0,SSE,3.5,-,N/A,,Clear,160,2012-12-31 05:15:00
10:35 PM,32.0,32.0,100,30.26,7.0,SSE,3.5,-,N/A,,Clear,150,2012-12-31 05:35:00
10:55 PM,32.0,32.0,100,30.26,7.0,SE,4.6,-,N/A,,Clear,140,2012-12-31 05:55:00
11:15 PM,32.0,32.0,100,30.27,10.0,SE,5.8,-,N/A,,Clear,140,2012-12-31 06:15:00
11:35 PM,33.8,33.8,100,30.26,10.0,SE,4.6,-,N/A,,Clear,130,2012-12-31 06:35:00
11:55 PM,32.0,32.0,100,30.26,10.0,SSE,4.6,-,N/A,,Clear,150,2012-12-31 06:55:00